Flag for U.S.A. Weather past 2 weeks in Annapolis, Maryland, U.S.A.

Now
64 °F

Clear.


Feels Like: 64 °F
Forecast: 60 / 73 °F
Wind: No wind

Location: Annapolis - United States Naval Academy

Current Time: Sep 17, 2014 at 9:56:06 PM

Latest Report: Sep 17, 2014 at 8:54 PM


Visibility: 10 mi

Pressure: 29.98 "Hg

Humidity: 73%

Dew point: 55 °F

Location of AnnapolisLocation

Historic Weather in Annapolis — Graph

°F

Annapolis temperature yesterday

Maximum temperature yesterday: 75 °F (at 3:54 PM)
Minimum temperature yesterday: 64 °F (at 5:54 AM)
Average temperature yesterday: 69 °F

Past Weeks' High & Low Weather Summary

 TemperatureHumidityPressure
High91 °F (Sep 6, 4:54 PM)93% (Sep 4, 3:54 AM)30.32 "Hg (Sep 4, 3:54 AM)
Low57 °F (Sep 14, 11:54 PM)45% (Sep 16, 4:54 PM)29.86 "Hg (Sep 6, 4:54 PM)
Average72 °F72%30.09 "Hg
* Reported Sep 2 7:54 PM — Sep 17 7:54 PM, Annapolis, Weather by CustomWeather, © 2014

Note: Actual official high and low records may vary slightly from our data, if they occured in-between our weather recording intervals... More about our weather records

Advertising

Annapolis weather history for previous 24 hours

 ConditionsComfort  
Time TempWeatherWind HumidityBarometerVisibility
7:54 PM
Sep 17
66 °FSunny.No wind68%29.97 "Hg10 mi
6:54 PM70 °FSunny.5 mph49%29.97 "Hg10 mi
5:54 PM71 °FPartly sunny.5 mph47%29.98 "Hg10 mi
4:54 PM71 °FSunny.6 mph45%29.98 "Hg10 mi
3:54 PM71 °FSunny.8 mph45%29.98 "Hg10 mi
2:54 PM70 °FPassing clouds.8 mph49%29.99 "Hg10 mi
1:54 PM71 °FPassing clouds.8 mph55%30.01 "Hg10 mi
12:54 PM70 °FSunny.8 mph53%30.03 "Hg10 mi
11:54 AM69 °FSunny.7 mph53%30.05 "Hg10 mi
10:54 AM68 °FSunny.6 mph51%30.06 "Hg10 mi
9:54 AM67 °FSunny.6 mph61%30.07 "Hg10 mi
8:54 AM65 °FSunny.3 mph76%30.07 "Hg10 mi
7:54 AM62 °FSunny.5 mph80%30.06 "Hg10 mi
6:54 AM61 °FClear.6 mph87%30.05 "Hg10 mi
5:54 AM62 °FClear.6 mph83%30.04 "Hg10 mi
4:54 AM62 °FClear.3 mph86%30.03 "Hg10 mi
3:54 AM62 °FClear.5 mph90%30.03 "Hg10 mi
2:54 AM61 °FClear.No wind87%30.03 "Hg10 mi
1:54 AM63 °FClear.5 mph84%30.04 "Hg10 mi
12:54 AM63 °FClear.3 mph84%30.03 "Hg10 mi
11:54 PM
Sep 16
65 °FClear.5 mph73%30.04 "Hg10 mi
10:54 PM66 °FClear.7 mph73%30.03 "Hg10 mi
9:54 PM67 °FClear.5 mph68%30.03 "Hg10 mi
Weather by CustomWeather, © 2014

See weather overviewHow to use our weather pages